sampling_time,wmo_synop_id,msc_id,stn_nam,stn_elev,lat,long,stn_typ,date_tm,rpt_typ,result_time,crnt_buoy_lat,crnt_buoy_lat_qa_summary,crnt_buoy_long,crnt_buoy_long_qa_summary,avg_air_temp_pst10mts,avg_air_temp_pst10mts_qa_summary,avg_sea_sfc_temp_pst10mts,avg_sea_sfc_temp_pst10mts_qa_summary,avg_batry_volt_pst10mts,avg_batry_volt_pst10mts_qa_summary,avg_solr_panl_crnt_pst10mts,avg_solr_panl_crnt_pst10mts_qa_summary,avg_wtr_lvl_snsr_volt_pst10mts,avg_wtr_lvl_snsr_volt_pst10mts_qa_summary,avg_wave_hgt_pst20mts,avg_wave_hgt_pst20mts_qa_summary,pk_wave_hgt_pst20mts,pk_wave_hgt_pst20mts_qa_summary,sig_wave_pd_pst20mts,sig_wave_pd_pst20mts_qa_summary,sig_wave_hgt_pst20mts,sig_wave_hgt_pst20mts_qa_summary,avg_max_wave_hgt_pst20mts,avg_max_wave_hgt_pst20mts_qa_summary,avg_max_wave_pd_pst20mts,avg_max_wave_pd_pst20mts_qa_summary,avg_wave_pd_pst20mts,avg_wave_pd_pst20mts_qa_summary,pk_wave_pd_pst20mts,pk_wave_pd_pst20mts_qa_summary,avg_stn_pres_pst10mts,avg_stn_pres_pst10mts_qa_summary,avg_wnd_spd_pst10mts,avg_wnd_spd_pst10mts_qa_summary,avg_wnd_dir_pst10mts,avg_wnd_dir_pst10mts_qa_summary,max_avg_wnd_spd_pst10mts,max_avg_wnd_spd_pst10mts_qa_summary,wnd_snsr_vert_disp,wnd_snsr_vert_disp_qa_summary,pres_tend_char_pst3hrs,pres_tend_char_pst3hrs_data_flag,pres_tend_amt_pst3hrs,pres_tend_amt_pst3hrs_data_flag,avg_mslp_pst10mts,avg_mslp_pst10mts_data_flag,avg_stn_pres_pst10mts_1,avg_stn_pres_pst10mts_2,avg_wnd_spd_pst10mts_1,avg_wnd_spd_pst10mts_2,avg_wnd_dir_pst10mts_1,avg_wnd_dir_pst10mts_2,max_avg_wnd_spd_pst10mts_1,max_avg_wnd_spd_pst10mts_2,wnd_snsr_vert_disp_1,wnd_snsr_vert_disp_2
2020-10-15T00:00:00Z,44488,9302000,East Chedabucto Bay,0.0,45.445,-60.9538,18,2020-10-15T00:00:00.000Z,108,2020-10-15T00:08:09.399Z,45.44582,100,-60.95505,100,14.1,100,12.6,100,12.5,100,0.0,100,3.6,100,1.4,100,3.2,100,7.5,100,2.1,100,2.5,100,7.5,100,6.0,100,9.1,100,1008.0,100,20.9,100,199,100,27.4,100,5.0,100,3,1,1.5,1,1008.0,1,1008.0,1008.0,20.9,20.9,199,201,27.4,27.0,5.0,4.0
2020-10-15T00:10:00Z,44488,9302000,East Chedabucto Bay,0.0,45.445,-60.9538,18,2020-10-15T00:10:00.000Z,110,2020-10-15T00:18:11.147Z,,-1,,-1,14.5,100,13.3,100,12.6,100,0.0,100,3.6,100,,-1,,-1,,-1,,-1,,-1,,-1,,-1,,-1,1008.1,100,19.4,100,203,100,23.4,100,5.0,100,3,1,1.7,1,1008.1,1,1008.1,1008.1,19.4,19.1,203,203,23.4,23.4,5.0,4.0
2020-10-15T00:20:00Z,44488,9302000,East Chedabucto Bay,0.0,45.445,-60.9538,18,2020-10-15T00:20:00.000Z,110,2020-10-15T00:28:08.585Z,45.44582,100,-60.95508,100,13.8,100,12.6,100,12.5,100,0.0,100,3.6,100,,-1,,-1,,-1,,-1,,-1,,-1,,-1,,-1,1008.1,100,17.3,100,195,100,23.0,100,5.0,100,3,1,1.6,1,1008.1,1,1008.1,1008.1,17.3,16.9,195,196,23.0,23.0,5.0,4.0
2020-10-15T00:30:00Z,44488,9302000,East Chedabucto Bay,0.0,45.445,-60.9538,18,2020-10-15T00:30:00.000Z,110,2020-10-15T00:38:15.527Z,45.44583,100,-60.95506999999999,100,13.6,100,12.6,100,12.5,100,0.0,100,3.6,100,,-1,,-1,,-1,,-1,,-1,,-1,,-1,,-1,1008.1,100,23.0,100,186,100,27.4,100,5.0,100,2,1,1.6,1,1008.1,1,1008.1,1008.1,23.0,23.0,186,188,27.4,27.4,5.0,4.0
2020-10-15T00:40:00Z,44488,9302000,East Chedabucto Bay,0.0,45.445,-60.9538,18,2020-10-15T00:40:00.000Z,110,2020-10-15T00:48:14.693Z,45.44583,100,-60.95506999999999,100,13.6,100,12.6,100,12.5,100,0.0,100,3.6,100,,-1,,-1,,-1,,-1,,-1,,-1,,-1,,-1,1008.1,100,25.2,100,196,100,29.2,100,5.0,100,2,1,1.6,1,1008.1,1,1008.1,1008.1,25.2,24.8,196,197,29.2,28.4,5.0,4.0
2020-10-15T00:50:00Z,44488,9302000,East Chedabucto Bay,0.0,45.445,-60.9538,18,2020-10-15T00:50:00.000Z,110,2020-10-15T00:58:16.168Z,45.44585,100,-60.95505,100,13.4,100,12.6,100,12.5,100,0.0,100,3.6,100,,-1,,-1,,-1,,-1,,-1,,-1,,-1,,-1,1008.4,100,23.4,100,204,100,28.4,100,5.0,100,3,1,1.8,1,1008.4,1,1008.4,1008.4,23.4,23.0,204,205,28.4,28.8,5.0,4.0
2020-10-15T01:00:00Z,44488,9302000,East Chedabucto Bay,0.0,45.445,-60.9538,18,2020-10-15T01:00:00.000Z,108,2020-10-15T01:08:27.281Z,45.44583,100,-60.95503000000001,100,13.4,100,12.6,100,12.5,100,0.0,100,3.6,100,1.4,100,3.2,100,7.8,100,2.1,100,2.4,100,7.8,100,6.2,100,9.5,100,1008.6,100,25.9,100,209,100,32.8,100,5.0,100,3,1,1.7,1,1008.6,1,1008.6,1008.5,25.9,25.6,209,211,32.8,32.0,5.0,4.0
2020-10-15T01:10:00Z,44488,9302000,East Chedabucto Bay,0.0,45.445,-60.9538,18,2020-10-15T01:10:00.000Z,110,2020-10-15T01:21:46.310Z,45.44583,100,-60.95503000000001,100,13.3,100,12.6,100,12.6,100,0.0,100,3.6,100,,-1,,-1,,-1,,-1,,-1,,-1,,-1,,-1,1008.7,100,24.8,100,218,100,31.3,100,5.0,100,3,1,1.8,1,1008.7,1,1008.7,1008.7,24.8,24.1,218,219,31.3,31.3,5.0,4.0
2020-10-15T01:20:00Z,44488,9302000,East Chedabucto Bay,0.0,45.445,-60.9538,18,2020-10-15T01:20:00.000Z,110,2020-10-15T01:28:33.109Z,45.44585,100,-60.95503000000001,100,13.2,100,12.6,100,12.5,100,0.0,100,3.6,100,,-1,,-1,,-1,,-1,,-1,,-1,,-1,,-1,1008.9,100,25.2,100,214,100,30.2,100,5.0,100,3,1,1.9,1,1008.9,1,1008.9,1008.9,25.2,24.5,214,215,30.2,29.9,5.0,4.0
2020-10-15T01:30:00Z,44488,9302000,East Chedabucto Bay,0.0,45.445,-60.9538,18,2020-10-15T01:30:00.000Z,110,2020-10-15T01:37:43.717Z,45.44585,100,-60.95506999999999,100,13.1,100,12.6,100,12.5,100,0.0,100,3.6,100,,-1,,-1,,-1,,-1,,-1,,-1,,-1,,-1,1009.0,100,26.3,100,216,100,30.6,100,5.0,100,3,1,2.1,1,1009.0,1,1009.0,1009.0,26.3,25.2,216,217,30.6,29.2,5.0,4.0
2020-10-15T01:40:00Z,44488,9302000,East Chedabucto Bay,0.0,45.445,-60.9538,18,2020-10-15T01:40:00.000Z,110,2020-10-15T01:47:42.436Z,45.44583,100,-60.95503000000001,100,13.1,100,12.6,100,12.5,100,0.0,100,3.6,100,,-1,,-1,,-1,,-1,,-1,,-1,,-1,,-1,1009.2,100,24.5,100,217,100,29.2,100,5.0,100,3,1,2.4,1,1009.2,1,1009.2,1009.2,24.5,23.4,217,218,29.2,28.1,5.0,4.0
2020-10-15T01:50:00Z,44488,9302000,East Chedabucto Bay,0.0,45.445,-60.9538,18,2020-10-15T01:50:00.000Z,110,2020-10-15T01:57:41.568Z,45.44585,100,-60.95503000000001,100,13.1,100,12.6,100,12.5,100,0.0,100,3.6,100,,-1,,-1,,-1,,-1,,-1,,-1,,-1,,-1,1009.3,100,24.8,100,219,100,29.9,100,5.0,100,2,1,2.3,1,1009.3,1,1009.3,1009.3,24.8,23.8,219,220,29.9,28.4,5.0,4.0
2020-10-15T02:00:00Z,44488,9302000,East Chedabucto Bay,0.0,45.445,-60.9538,18,2020-10-15T02:00:00.000Z,108,2020-10-15T02:07:46.669Z,45.44587,100,-60.955,100,13.0,100,12.6,100,12.5,100,0.0,100,3.6,100,1.2,100,3.0,100,7.6,100,1.8,100,2.3,100,7.6,100,5.9,100,7.4,100,1009.5,100,24.5,100,221,100,29.2,100,5.0,100,3,1,2.3,1,1009.5,1,1009.5,1009.5,24.5,23.4,221,222,29.2,29.2,5.0,4.0
2020-10-15T02:10:00Z,44488,9302000,East Chedabucto Bay,0.0,45.445,-60.9538,18,2020-10-15T02:10:00.000Z,110,2020-10-15T02:20:45.107Z,45.44583,100,-60.95506999999999,100,13.0,100,12.6,100,12.5,100,0.0,100,3.6,100,,-1,,-1,,-1,,-1,,-1,,-1,,-1,,-1,1009.6,100,23.0,100,228,100,28.1,100,5.0,100,2,1,2.4,1,1009.6,1,1009.6,1009.6,23.0,22.0,228,229,28.1,27.7,5.0,4.0
2020-10-15T02:20:00Z,44488,9302000,East Chedabucto Bay,0.0,45.445,-60.9538,18,2020-10-15T02:20:00.000Z,110,2020-10-15T02:27:51.892Z,45.44582,100,-60.95505,100,13.1,100,12.6,100,12.5,100,0.0,100,3.6,100,,-1,,-1,,-1,,-1,,-1,,-1,,-1,,-1,1009.8,100,23.0,100,235,100,27.7,100,5.0,100,3,1,2.4,1,1009.8,1,1009.8,1009.8,23.0,22.3,235,236,27.7,27.0,5.0,4.0
2020-10-15T02:30:00Z,44488,9302000,East Chedabucto Bay,0.0,45.445,-60.9538,18,2020-10-15T02:30:00.000Z,110,2020-10-15T02:37:56.208Z,45.44582,100,-60.95505,100,13.4,100,12.6,100,12.5,100,0.0,100,3.6,100,,-1,,-1,,-1,,-1,,-1,,-1,,-1,,-1,1009.9,100,22.7,100,250,100,28.1,100,5.0,100,3,1,2.3,1,1009.9,1,1009.9,1009.9,22.7,21.6,250,252,28.1,28.1,5.0,4.0
2020-10-15T02:40:00Z,44488,9302000,East Chedabucto Bay,0.0,45.445,-60.9538,18,2020-10-15T02:40:00.000Z,110,2020-10-15T02:47:58.511Z,45.44582,100,-60.95505,100,13.7,100,12.6,100,12.5,100,0.0,100,3.6,100,,-1,,-1,,-1,,-1,,-1,,-1,,-1,,-1,1010.1,100,22.3,100,263,100,29.9,100,5.0,100,3,1,2.4,1,1010.1,1,1010.1,1010.1,22.3,21.6,263,264,29.9,29.9,5.0,4.0
2020-10-15T02:50:00Z,44488,9302000,East Chedabucto Bay,0.0,45.445,-60.9538,18,2020-10-15T02:50:00.000Z,110,2020-10-15T02:58:00.789Z,45.44575,100,-60.955,100,13.8,100,12.6,100,12.5,100,0.0,100,3.6,100,,-1,,-1,,-1,,-1,,-1,,-1,,-1,,-1,1010.3,100,29.2,100,303,100,38.5,100,5.0,100,3,1,2.4,1,1010.3,1,1010.3,1010.3,29.2,27.7,303,304,38.5,36.7,5.0,4.0
2020-10-15T03:00:00Z,44488,9302000,East Chedabucto Bay,0.0,45.445,-60.9538,18,2020-10-15T03:00:00.000Z,108,2020-10-15T03:08:00.271Z,45.445679999999996,100,-60.954980000000006,100,13.4,100,12.7,100,12.5,100,0.0,100,3.6,100,1.1,100,2.5,100,7.8,100,1.8,100,2.1,100,7.9,100,6.2,100,9.5,100,1010.4,100,28.8,100,310,100,40.3,100,5.0,100,3,1,2.5,1,1010.4,1,1010.4,1010.4,28.8,27.4,310,311,40.3,38.5,5.0,4.0
2020-10-15T03:10:00Z,44488,9302000,East Chedabucto Bay,0.0,45.445,-60.9538,18,2020-10-15T03:10:00.000Z,110,2020-10-15T03:21:07.743Z,45.44565,100,-60.95495,100,13.3,100,12.7,100,12.6,100,0.0,100,3.6,100,,-1,,-1,,-1,,-1,,-1,,-1,,-1,,-1,1010.5,100,31.7,100,314,100,40.7,100,5.0,100,3,1,2.4,1,1010.5,1,1010.5,1010.5,31.7,30.2,314,315,40.7,37.8,5.0,4.0
2020-10-15T03:20:00Z,44488,9302000,East Chedabucto Bay,0.0,45.445,-60.9538,18,2020-10-15T03:20:00.000Z,110,2020-10-15T03:28:04.332Z,45.44567,100,-60.954980000000006,100,13.2,100,12.7,100,12.6,100,0.0,100,3.6,100,,-1,,-1,,-1,,-1,,-1,,-1,,-1,,-1,1010.7,100,33.1,100,306,100,43.2,100,5.0,100,3,1,2.6,1,1010.7,1,1010.7,1010.7,33.1,31.3,306,308,43.2,41.4,5.0,4.0
2020-10-15T03:30:00Z,44488,9302000,East Chedabucto Bay,0.0,45.445,-60.9538,18,2020-10-15T03:30:00.000Z,110,2020-10-15T03:38:12.457Z,45.44567,100,-60.954980000000006,100,13.5,100,12.7,100,12.5,100,0.0,100,3.6,100,,-1,,-1,,-1,,-1,,-1,,-1,,-1,,-1,1010.8,100,31.7,100,301,100,45.7,100,5.0,100,1,1,2.7,1,1010.8,1,1010.8,1010.8,31.7,29.9,301,302,45.7,43.9,5.0,4.0
2020-10-15T03:40:00Z,44488,9302000,East Chedabucto Bay,0.0,45.445,-60.9538,18,2020-10-15T03:40:00.000Z,110,2020-10-15T03:48:07.390Z,45.44567,100,-60.954969999999996,100,13.7,100,12.7,100,12.5,100,0.0,100,3.6,100,,-1,,-1,,-1,,-1,,-1,,-1,,-1,,-1,1011.0,100,28.4,100,301,100,38.5,100,5.0,100,1,1,2.9,1,1011.0,1,1011.0,1010.9,28.4,27.0,301,302,38.5,37.8,5.0,4.0
2020-10-15T03:50:00Z,44488,9302000,East Chedabucto Bay,0.0,45.445,-60.9538,18,2020-10-15T03:50:00.000Z,110,2020-10-15T03:58:25.993Z,45.44567,100,-60.954980000000006,100,13.7,100,12.7,100,12.5,100,0.0,100,3.6,100,,-1,,-1,,-1,,-1,,-1,,-1,,-1,,-1,1011.1,100,28.4,100,301,100,36.7,100,5.0,100,1,1,2.7,1,1011.1,1,1011.1,1011.1,28.4,26.6,301,302,36.7,34.2,5.0,4.0
2020-10-15T04:00:00Z,44488,9302000,East Chedabucto Bay,0.0,45.445,-60.9538,18,2020-10-15T04:00:00.000Z,108,2020-10-15T04:08:23.047Z,45.44567,100,-60.955,100,13.7,100,12.7,100,12.5,100,0.0,100,3.6,100,1.1,100,2.8,100,8.4,100,1.7,100,2.1,100,8.2,100,6.2,100,8.7,100,1011.3,100,28.4,100,302,100,36.7,100,5.0,100,2,1,2.7,1,1011.3,1,1011.3,1011.3,28.4,26.6,302,303,36.7,35.3,5.0,4.0
2020-10-15T04:10:00Z,44488,9302000,East Chedabucto Bay,0.0,45.445,-60.9538,18,2020-10-15T04:10:00.000Z,110,2020-10-15T04:21:19.752Z,45.44565,100,-60.95495,100,13.7,100,12.7,100,12.6,100,0.0,100,3.6,100,,-1,,-1,,-1,,-1,,-1,,-1,,-1,,-1,1011.4,100,32.8,100,306,100,45.7,100,5.0,100,2,1,2.7,1,1011.4,1,1011.4,1011.4,32.8,31.0,306,307,45.7,44.3,5.0,4.0
2020-10-15T04:20:00Z,44488,9302000,East Chedabucto Bay,0.0,45.445,-60.9538,18,2020-10-15T04:20:00.000Z,110,2020-10-15T04:28:19.126Z,45.44567,100,-60.955,100,13.6,100,12.7,100,12.5,100,0.0,100,3.6,100,,-1,,-1,,-1,,-1,,-1,,-1,,-1,,-1,1011.5,100,32.0,100,301,100,45.0,100,5.0,100,1,1,2.7,1,1011.5,1,1011.5,1011.5,32.0,30.6,301,303,45.0,43.2,5.0,4.0
2020-10-15T04:30:00Z,44488,9302000,East Chedabucto Bay,0.0,45.445,-60.9538,18,2020-10-15T04:30:00.000Z,110,2020-10-15T04:38:21.914Z,45.4457,100,-60.95503000000001,100,13.5,100,12.7,100,12.6,100,0.0,100,3.6,100,,-1,,-1,,-1,,-1,,-1,,-1,,-1,,-1,1011.7,100,27.0,100,305,100,38.5,100,5.0,100,3,1,2.7,1,1011.7,1,1011.7,1011.7,27.0,25.6,305,306,38.5,36.7,5.0,4.0
2020-10-15T04:40:00Z,44488,9302000,East Chedabucto Bay,0.0,45.445,-60.9538,18,2020-10-15T04:40:00.000Z,110,2020-10-15T04:48:22.347Z,45.4457,100,-60.95503000000001,100,13.5,100,12.7,100,12.5,100,0.0,100,3.6,100,,-1,,-1,,-1,,-1,,-1,,-1,,-1,,-1,1011.8,100,27.0,100,303,100,38.2,100,5.0,100,1,1,2.6,1,1011.8,1,1011.8,1011.8,27.0,25.6,303,304,38.2,37.4,5.0,4.0
2020-10-15T04:50:00Z,44488,9302000,East Chedabucto Bay,0.0,45.445,-60.9538,18,2020-10-15T04:50:00.000Z,110,2020-10-15T04:58:27.666Z,45.445679999999996,100,-60.95502,100,13.5,100,12.7,100,12.5,100,0.0,100,3.6,100,,-1,,-1,,-1,,-1,,-1,,-1,,-1,,-1,1011.9,100,29.2,100,298,100,36.7,100,5.0,100,1,1,2.6,1,1011.9,1,1011.9,1011.9,29.2,27.7,298,299,36.7,36.0,5.0,4.0
2020-10-15T05:00:00Z,44488,9302000,East Chedabucto Bay,0.0,45.445,-60.9538,18,2020-10-15T05:00:00.000Z,108,2020-10-15T05:07:36.102Z,45.44573,100,-60.95508,100,13.4,100,12.7,100,12.5,100,0.0,100,3.6,100,1.0,100,2.4,100,8.0,100,1.5,100,1.9,100,8.1,100,5.9,100,9.1,100,1012.0,100,27.4,100,299,100,34.2,100,5.0,100,1,1,2.5,1,1012.0,1,1012.0,1012.0,27.4,25.9,299,300,34.2,33.1,5.0,4.0
2020-10-15T05:10:00Z,44488,9302000,East Chedabucto Bay,0.0,45.445,-60.9538,18,2020-10-15T05:10:00.000Z,110,2020-10-15T05:20:36.609Z,45.44575,100,-60.95512,100,13.3,100,12.7,100,12.5,100,0.0,100,3.6,100,,-1,,-1,,-1,,-1,,-1,,-1,,-1,,-1,1012.2,100,24.8,100,301,100,31.7,100,5.0,100,1,1,2.5,1,1012.2,1,1012.2,1012.2,24.8,23.4,301,302,31.7,30.2,5.0,4.0
2020-10-15T05:20:00Z,44488,9302000,East Chedabucto Bay,0.0,45.445,-60.9538,18,2020-10-15T05:20:00.000Z,110,2020-10-15T05:27:38.417Z,45.44572,100,-60.95515,100,13.2,100,12.7,100,12.5,100,0.0,100,3.6,100,,-1,,-1,,-1,,-1,,-1,,-1,,-1,,-1,1012.5,100,22.3,100,301,100,28.8,100,5.0,100,3,1,2.7,1,1012.5,1,1012.5,1012.5,22.3,20.5,301,302,28.8,27.0,5.0,4.0
2020-10-15T05:30:00Z,44488,9302000,East Chedabucto Bay,0.0,45.445,-60.9538,18,2020-10-15T05:30:00.000Z,110,2020-10-15T05:37:41.806Z,45.44573,100,-60.9552,100,13.3,100,12.7,100,12.5,100,0.0,100,3.6,100,,-1,,-1,,-1,,-1,,-1,,-1,,-1,,-1,1012.5,100,25.2,100,292,100,36.4,100,5.0,100,1,1,2.6,1,1012.5,1,1012.5,1012.5,25.2,23.8,292,293,36.4,34.9,5.0,4.0
2020-10-15T05:40:00Z,44488,9302000,East Chedabucto Bay,0.0,45.445,-60.9538,18,2020-10-15T05:40:00.000Z,110,2020-10-15T05:47:41.454Z,45.4457,100,-60.95518000000001,100,13.3,100,12.7,100,12.5,100,0.0,100,3.6,100,,-1,,-1,,-1,,-1,,-1,,-1,,-1,,-1,1012.5,100,29.2,100,290,100,38.5,100,5.0,100,1,1,2.4,1,1012.5,1,1012.5,1012.5,29.2,27.4,290,291,38.5,37.1,5.0,4.0
2020-10-15T05:50:00Z,44488,9302000,East Chedabucto Bay,0.0,45.445,-60.9538,18,2020-10-15T05:50:00.000Z,110,2020-10-15T05:57:45.714Z,45.4457,100,-60.95518000000001,100,13.3,100,12.7,100,12.5,100,0.0,100,3.6,100,,-1,,-1,,-1,,-1,,-1,,-1,,-1,,-1,1012.6,100,31.7,100,294,100,40.0,100,5.0,100,1,1,2.3,1,1012.6,1,1012.6,1012.6,31.7,29.9,294,295,40.0,38.2,5.0,4.0
2020-10-15T06:00:00Z,44488,9302000,East Chedabucto Bay,0.0,45.445,-60.9538,18,2020-10-15T06:00:00.000Z,108,2020-10-15T06:07:47.963Z,45.44565,100,-60.95506999999999,100,13.3,100,12.7,100,12.5,100,0.0,100,3.6,100,0.9,100,2.7,100,7.8,100,1.5,100,1.9,100,7.8,100,6.0,100,9.5,100,1012.8,100,32.8,100,296,100,41.8,100,5.0,100,1,1,2.4,1,1012.8,1,1012.8,1012.8,32.8,31.3,296,297,41.8,40.0,5.0,4.0
2020-10-15T06:10:00Z,44488,9302000,East Chedabucto Bay,0.0,45.445,-60.9538,18,2020-10-15T06:10:00.000Z,110,2020-10-15T06:20:49.502Z,45.44565,100,-60.9551,100,13.2,100,12.7,100,12.5,100,0.0,100,3.6,100,,-1,,-1,,-1,,-1,,-1,,-1,,-1,,-1,1013.0,100,28.8,100,296,100,37.8,100,5.0,100,2,1,2.5,1,1013.0,1,1013.0,1013.0,28.8,27.4,296,297,37.8,36.0,5.0,4.0
2020-10-15T06:20:00Z,44488,9302000,East Chedabucto Bay,0.0,45.445,-60.9538,18,2020-10-15T06:20:00.000Z,110,2020-10-15T06:27:54.882Z,45.44565,100,-60.95508,100,13.2,100,12.7,100,12.5,100,0.0,100,3.6,100,,-1,,-1,,-1,,-1,,-1,,-1,,-1,,-1,1013.0,100,31.3,100,298,100,42.5,100,5.0,100,1,1,2.4,1,1013.0,1,1013.0,1013.0,31.3,29.5,298,299,42.5,40.7,5.0,4.0
2020-10-15T06:30:00Z,44488,9302000,East Chedabucto Bay,0.0,45.445,-60.9538,18,2020-10-15T06:30:00.000Z,110,2020-10-15T06:37:59.401Z,45.44565,100,-60.95508,100,13.0,100,12.7,100,12.6,100,0.0,100,3.6,100,,-1,,-1,,-1,,-1,,-1,,-1,,-1,,-1,1013.0,100,31.0,100,298,100,39.6,100,5.0,100,1,1,2.3,1,1013.0,1,1013.0,1013.0,31.0,29.2,298,299,39.6,38.5,5.0,4.0
2020-10-15T06:40:00Z,44488,9302000,East Chedabucto Bay,0.0,45.445,-60.9538,18,2020-10-15T06:40:00.000Z,110,2020-10-15T06:48:05.202Z,45.44565,100,-60.95506999999999,100,12.9,100,12.7,100,12.5,100,0.0,100,3.6,100,,-1,,-1,,-1,,-1,,-1,,-1,,-1,,-1,1013.1,100,31.7,100,297,100,40.0,100,5.0,100,1,1,2.1,1,1013.1,1,1013.1,1013.1,31.7,30.2,297,298,40.0,38.2,5.0,4.0
2020-10-15T06:50:00Z,44488,9302000,East Chedabucto Bay,0.0,45.445,-60.9538,18,2020-10-15T06:50:00.000Z,110,2020-10-15T06:58:00.932Z,45.44567,100,-60.95508,100,12.8,100,12.7,100,12.5,100,0.0,100,3.6,100,,-1,,-1,,-1,,-1,,-1,,-1,,-1,,-1,1013.4,100,25.9,100,293,100,32.8,100,5.0,100,2,1,2.3,1,1013.4,1,1013.4,1013.4,25.9,24.5,293,294,32.8,31.3,5.0,4.0
2020-10-15T07:00:00Z,44488,9302000,East Chedabucto Bay,0.0,45.445,-60.9538,18,2020-10-15T07:00:00.000Z,108,2020-10-15T07:08:04.740Z,45.44565,100,-60.9551,100,12.7,100,12.7,100,12.5,100,0.0,100,3.6,100,0.9,100,2.9,100,7.9,100,1.5,100,1.9,100,8.1,100,6.0,100,8.7,100,1013.6,100,28.1,100,288,100,34.2,100,5.0,100,3,1,2.4,1,1013.6,1,1013.6,1013.6,28.1,26.6,288,289,34.2,32.8,5.0,4.0
2020-10-15T07:10:00Z,44488,9302000,East Chedabucto Bay,0.0,45.445,-60.9538,18,2020-10-15T07:10:00.000Z,110,2020-10-15T07:21:14.108Z,45.44567,100,-60.95506999999999,100,12.7,100,12.7,100,12.5,100,0.0,100,3.6,100,,-1,,-1,,-1,,-1,,-1,,-1,,-1,,-1,1013.8,100,29.9,100,286,100,35.3,100,5.0,100,2,1,2.4,1,1013.8,1,1013.8,1013.8,29.9,28.1,286,287,35.3,33.8,5.0,4.0
2020-10-15T07:20:00Z,44488,9302000,East Chedabucto Bay,0.0,45.445,-60.9538,18,2020-10-15T07:20:00.000Z,110,2020-10-15T07:28:04.843Z,45.44565,100,-60.9551,100,12.6,100,12.7,100,12.5,100,0.0,100,3.6,100,,-1,,-1,,-1,,-1,,-1,,-1,,-1,,-1,1014.0,100,27.4,100,288,100,35.3,100,5.0,100,2,1,2.5,1,1014.0,1,1014.0,1014.0,27.4,25.6,288,289,35.3,33.5,5.0,4.0
2020-10-15T07:30:00Z,44488,9302000,East Chedabucto Bay,0.0,45.445,-60.9538,18,2020-10-15T07:30:00.000Z,110,2020-10-15T07:38:18.433Z,45.44567,100,-60.95508,100,12.6,100,12.7,100,12.5,100,0.0,100,3.6,100,,-1,,-1,,-1,,-1,,-1,,-1,,-1,,-1,1014.2,100,26.3,100,297,100,32.4,100,5.0,100,3,1,2.4,1,1014.2,1,1014.2,1014.2,26.3,24.8,297,298,32.4,31.3,5.0,4.0
2020-10-15T07:40:00Z,44488,9302000,East Chedabucto Bay,0.0,45.445,-60.9538,18,2020-10-15T07:40:00.000Z,110,2020-10-15T07:48:17.874Z,45.44568,100,-60.95508,100,12.5,100,12.7,100,12.5,100,0.0,100,3.6,100,,-1,,-1,,-1,,-1,,-1,,-1,,-1,,-1,1014.3,100,25.9,100,301,100,33.1,100,5.0,100,3,1,2.6,1,1014.3,1,1014.3,1014.3,25.9,24.5,301,302,33.1,31.3,5.0,4.0
2020-10-15T07:50:00Z,44488,9302000,East Chedabucto Bay,0.0,45.445,-60.9538,18,2020-10-15T07:50:00.000Z,110,2020-10-15T07:58:19.430Z,45.445679999999996,100,-60.9551,100,12.4,100,12.7,100,12.5,100,0.0,100,3.6,100,,-1,,-1,,-1,,-1,,-1,,-1,,-1,,-1,1014.5,100,22.7,100,306,100,27.7,100,5.0,100,3,1,2.6,1,1014.5,1,1014.5,1014.5,22.7,21.6,306,307,27.7,26.6,5.0,4.0
2020-10-15T08:00:00Z,44488,9302000,East Chedabucto Bay,0.0,45.445,-60.9538,18,2020-10-15T08:00:00.000Z,108,2020-10-15T08:08:28.553Z,45.44568,100,-60.9551,100,12.4,100,12.7,100,12.5,100,0.0,100,3.6,100,0.8,100,2.1,100,8.2,100,1.4,100,1.7,100,8.5,100,6.3,100,9.1,100,1014.7,100,21.2,100,298,100,26.3,100,5.0,100,3,1,2.7,1,1014.7,1,1014.7,1014.7,21.2,19.8,298,299,26.3,25.9,5.0,4.0
2020-10-15T08:10:00Z,44488,9302000,East Chedabucto Bay,0.0,45.445,-60.9538,18,2020-10-15T08:10:00.000Z,110,2020-10-15T08:21:31.256Z,45.445679999999996,100,-60.95503000000001,100,12.3,100,12.7,100,12.5,100,0.0,100,3.6,100,,-1,,-1,,-1,,-1,,-1,,-1,,-1,,-1,1014.8,100,22.7,100,297,100,29.9,100,5.0,100,3,1,2.6,1,1014.8,1,1014.8,1014.8,22.7,21.6,297,297,29.9,29.5,5.0,4.0
2020-10-15T08:20:00Z,44488,9302000,East Chedabucto Bay,0.0,45.445,-60.9538,18,2020-10-15T08:20:00.000Z,110,2020-10-15T08:28:36.367Z,45.4457,100,-60.9551,100,12.2,100,12.7,100,12.5,100,0.0,100,3.6,100,,-1,,-1,,-1,,-1,,-1,,-1,,-1,,-1,1014.9,100,23.8,100,304,100,28.1,100,5.0,100,3,1,2.5,1,1014.9,1,1014.9,1014.9,23.8,22.3,304,305,28.1,27.0,5.0,4.0
2020-10-15T08:30:00Z,44488,9302000,East Chedabucto Bay,0.0,45.445,-60.9538,18,2020-10-15T08:30:00.000Z,110,2020-10-15T08:38:36.944Z,45.4457,100,-60.95506999999999,100,12.0,100,12.7,100,12.6,100,0.0,100,3.6,100,,-1,,-1,,-1,,-1,,-1,,-1,,-1,,-1,1015.2,100,21.6,100,305,100,27.4,100,5.0,100,3,1,2.7,1,1015.2,1,1015.2,1015.1,21.6,20.9,305,306,27.4,26.3,5.0,4.0
2020-10-15T08:40:00Z,44488,9302000,East Chedabucto Bay,0.0,45.445,-60.9538,18,2020-10-15T08:40:00.000Z,110,2020-10-15T08:48:34.002Z,45.44573,100,-60.95508,100,12.0,100,12.7,100,12.5,100,0.0,100,3.6,100,,-1,,-1,,-1,,-1,,-1,,-1,,-1,,-1,1015.4,100,21.2,100,301,100,28.1,100,5.0,100,3,1,2.9,1,1015.4,1,1015.4,1015.4,21.2,20.2,301,302,28.1,26.3,5.0,4.0
2020-10-15T08:50:00Z,44488,9302000,East Chedabucto Bay,0.0,45.445,-60.9538,18,2020-10-15T08:50:00.000Z,110,2020-10-15T08:58:37.259Z,45.44568,100,-60.95508,100,12.0,100,12.7,100,12.5,100,0.0,100,3.6,100,,-1,,-1,,-1,,-1,,-1,,-1,,-1,,-1,1015.7,100,18.4,100,311,100,25.6,100,5.0,100,3,1,3.1,1,1015.7,1,1015.7,1015.7,18.4,17.6,311,312,25.6,24.8,5.0,4.0
2020-10-15T09:00:00Z,44488,9302000,East Chedabucto Bay,0.0,45.445,-60.9538,18,2020-10-15T09:00:00.000Z,108,2020-10-15T09:07:36.484Z,45.44567,100,-60.9551,100,11.9,100,12.7,100,12.5,100,0.0,100,3.6,100,0.8,100,2.1,100,8.1,100,1.3,100,1.7,100,8.2,100,6.4,100,8.7,100,1015.9,100,16.6,100,310,100,20.2,100,5.0,100,3,1,3.1,1,1015.9,1,1015.9,1015.9,16.6,15.8,310,311,20.2,19.8,5.0,4.0
2020-10-15T09:10:00Z,44488,9302000,East Chedabucto Bay,0.0,45.445,-60.9538,18,2020-10-15T09:10:00.000Z,110,2020-10-15T09:20:42.081Z,45.44567,100,-60.95506999999999,100,11.9,100,12.7,100,12.5,100,0.0,100,3.6,100,,-1,,-1,,-1,,-1,,-1,,-1,,-1,,-1,1016.2,100,15.8,100,300,100,19.8,100,5.0,100,3,1,3.2,1,1016.2,1,1016.2,1016.2,15.8,14.8,300,301,19.8,18.7,5.0,4.0
2020-10-15T09:20:00Z,44488,9302000,East Chedabucto Bay,0.0,45.445,-60.9538,18,2020-10-15T09:20:00.000Z,110,2020-10-15T09:29:49.795Z,45.44567,100,-60.95502,100,11.9,100,12.7,100,12.5,100,0.0,100,3.6,100,,-1,,-1,,-1,,-1,,-1,,-1,,-1,,-1,1016.4,100,17.3,100,288,100,23.8,100,5.0,100,3,1,3.4,1,1016.4,1,1016.4,1016.4,17.3,16.2,288,289,23.8,23.0,5.0,4.0
2020-10-15T09:30:00Z,44488,9302000,East Chedabucto Bay,0.0,45.445,-60.9538,18,2020-10-15T09:30:00.000Z,110,2020-10-15T09:37:52.552Z,45.4457,100,-60.95502,100,11.9,100,12.7,100,12.5,100,0.0,100,3.6,100,,-1,,-1,,-1,,-1,,-1,,-1,,-1,,-1,1016.7,100,15.1,100,272,100,20.9,100,5.0,100,3,1,3.7,1,1016.7,1,1016.7,1016.7,15.1,14.0,272,273,20.9,19.4,5.0,4.0
2020-10-15T09:40:00Z,44488,9302000,East Chedabucto Bay,0.0,45.445,-60.9538,18,2020-10-15T09:40:00.000Z,110,2020-10-15T09:47:58.512Z,45.4457,100,-60.95502,100,12.0,100,12.7,100,12.5,100,0.0,100,3.6,100,,-1,,-1,,-1,,-1,,-1,,-1,,-1,,-1,1016.9,100,13.3,100,278,100,17.6,100,5.0,100,3,1,3.9,1,1016.9,1,1016.9,1016.9,13.3,12.6,278,279,17.6,16.9,5.0,4.0
2020-10-15T09:50:00Z,44488,9302000,East Chedabucto Bay,0.0,45.445,-60.9538,18,2020-10-15T09:50:00.000Z,110,2020-10-15T09:57:53.333Z,45.4457,100,-60.95503000000001,100,12.1,100,12.7,100,12.5,100,0.0,100,3.6,100,,-1,,-1,,-1,,-1,,-1,,-1,,-1,,-1,1017.0,100,13.0,100,307,100,19.8,100,5.0,100,3,1,3.6,1,1017.0,1,1017.0,1017.0,13.0,12.6,307,308,19.8,19.1,5.0,4.0
2020-10-15T10:00:00Z,44488,9302000,East Chedabucto Bay,0.0,45.445,-60.9538,18,2020-10-15T10:00:00.000Z,108,2020-10-15T10:07:57.363Z,45.4457,100,-60.954980000000006,100,12.0,100,12.7,100,12.5,100,0.0,100,3.6,100,0.8,100,2.0,100,8.1,100,1.2,100,1.5,100,7.9,100,6.2,100,8.7,100,1017.1,100,14.4,100,304,100,18.4,100,5.0,100,3,1,3.5,1,1017.1,1,1017.1,1017.1,14.4,14.0,304,305,18.4,18.4,5.0,4.0
2020-10-15T10:10:00Z,44488,9302000,East Chedabucto Bay,0.0,45.445,-60.9538,18,2020-10-15T10:10:00.000Z,110,2020-10-15T10:20:58.936Z,45.445679999999996,100,-60.95495,100,11.9,100,12.7,100,12.5,100,0.0,100,3.6,100,,-1,,-1,,-1,,-1,,-1,,-1,,-1,,-1,1017.2,100,13.7,100,299,100,17.6,100,5.0,100,2,1,3.4,1,1017.2,1,1017.2,1017.2,13.7,13.3,299,300,17.6,17.3,5.0,4.0